Tracking 20093 objects as of 15-Dec-2019
HD Live streaming from Space Station
objects crossing your sky now

COSMOS 2251 DEB

Track COSMOS 2251 DEB now!
10-day predictions


NORAD ID: 37282
Int'l Code: 1993-036BHW
Perigee: 645.3 km
Apogee: 758.0 km
Inclination: 73.9 °
Period: 98.7 minutes
Semi major axis: 7072 km
RCS: 0.0097 m2 (small)
Launch date: June 16, 1993
Source: Commonwealth of Independent States (former USSR) (CIS)
Launch site: PLESETSK MISSILE AND SPACE COMPLEX (PKMTR)

Note: This is SATELLITE DEBRIS
aabbcc
Your satellite tracking list
Your tracking list is empty




NASA's NSSDC Master Catalog

Two Line Element Set (TLE):
1 37282U 93036BHW 19348.66784784 +.00001014 +00000-0 +21078-3 0  9995
2 37282 073.8941 094.1211 0079640 316.7882 042.7050 14.59586152552427
Source of the keplerian elements: AFSPC